Location: Borotín
(49.5055°N, 14.6142°E)
Time: 06:43:10
(UTC+00:00)

Cosmos 1455 Rocket - Pass Details

Date: 27 May 2022
Orbit: 604 x 629 km, 82.5° (Epoch: 28 June)

Event Time Altitude Azimuth Distance (km) Brightness Sun altitude
Rises 00:33:44 0° 346° (NNW) 2,933 7.4 -16.1°
Reaches altitude 10° 00:36:01 10° 342° (NNW) 2,019 6.4 -16.0°
Maximum altitude 00:40:23 55° 266° (W) 762 3.3 -15.7°
Enters shadow 00:42:31 28° 200° (SSW) 1,190 3.9 -15.6°
